Marianna, FL

3:03 AM CST on February 22, 2017 (GMT -0600)
Marianna Municipal

Weather History for KMAI - July, 2013

Change the Weather History Date:

Sunday, July 14, 2013

  Actual Average Record
Temperature  
Mean Temperature 80 °F 82 °F  
Max Temperature 87 °F 92 °F 99 °F (2010)
Min Temperature 73 °F 72 °F 72 °F (1997)
Degree Days  
Heating Degree Days 0    
Month to date heating degree days 0  
Since 1 June heating degree days 0  
Since 1 July heating degree days 0  
Cooling Degree Days 15    
Month to date cooling degree days 189  
Year to date cooling degree days 1074  
Since 1 June cooling degree days 638  
Growing Degree Days 28 (Base 50)    
Moisture  
Dew Point 73 °F    
Average Humidity 82    
Maximum Humidity 94    
Minimum Humidity 70    
Precipitation  
Precipitation T in 0.18 in 0.35 in (1998)
Month to date precipitation 6.17 2.53  
Year to date precipitation 31.17 30.32  
Sea Level Pressure  
Sea Level Pressure 30.01 in    
Wind  
Wind Speed 5 mph (East)    
Max Wind Speed 8 mph    
Max Gust Speed 9 mph    
Visibility 9 miles    
Events Rain , Thunderstorm    
T = Trace of Precipitation, MM = Missing Value Source: NWS Daily Summary

Daily Weather History Graph

Daily Weather History Graph

Search for Another Location

Airport or City:

Trip Planner

Search our weather history database for the weather conditions in past years. The results will help you decide how hot, cold, wet, or windy it might be!

Date:

Astronomy

Jul. 14, 2013 Rise Set
Actual Time 5:47 AM CDT 7:45 PM CDT
Civil Twilight 5:20 AM CDT 8:12 PM CDT
Nautical Twilight 4:47 AM CDT 8:45 PM CDT
Astronomical Twilight 4:12 AM CDT 9:20 PM CDT
Moon 11:34 AM CDT (7/14) 11:27 PM CDT (7/14)
Length of Visible Light 14h 52m
Length of Day
13h 57m
Waxing Crescent, 35% of the Moon is Illuminated
Jul 14
Waxing Crescent
Jul 15
First Quarter
Jul 22
Full
Jul 29
Last Quarter
Aug 6
New

Hourly Weather History & Observations

Time (CDT) Temp. Heat Index Dew Point Humidity Pressure Visibility Wind Dir Wind Speed Gust Speed Precip Events Conditions
12:13 AM 73.4 °F - 71.6 °F 94% 29.98 in 10.0 mi NE 6.9 mph - N/A   Overcast
12:20 AM 73.4 °F - 71.6 °F 94% 29.98 in 10.0 mi ENE 8.1 mph - N/A   Overcast
12:53 AM 73.0 °F - 71.1 °F 93% 29.97 in 10.0 mi ENE 6.9 mph - N/A   Overcast
1:53 AM 73.0 °F - 71.1 °F 93% 29.95 in 10.0 mi East 4.6 mph - N/A   Mostly Cloudy
2:53 AM 73.0 °F - 72.0 °F 96% 29.94 in 10.0 mi East 5.8 mph - N/A   Overcast
3:22 AM 73.4 °F - 71.6 °F 94% 29.95 in 10.0 mi East 5.8 mph - N/A   Scattered Clouds
3:53 AM 73.0 °F - 72.0 °F 96% 29.94 in 10.0 mi ESE 5.8 mph - N/A   Partly Cloudy
4:53 AM 73.0 °F - 72.0 °F 96% 29.96 in 10.0 mi East 3.5 mph - 0.00 in   Scattered Clouds
5:06 AM 73.4 °F - 71.6 °F 94% 29.97 in 10.0 mi Calm Calm - N/A   Mostly Cloudy
5:53 AM 73.0 °F - 72.0 °F 96% 29.99 in 10.0 mi Calm Calm - 0.00 in Rain Light Rain
6:50 AM 73.4 °F - 71.6 °F 94% 30.00 in 10.0 mi ENE 5.8 mph - 0.00 in   Overcast
6:53 AM 73.9 °F - 73.0 °F 97% 30.00 in 10.0 mi ENE 5.8 mph - 0.00 in   Overcast
7:04 AM 73.4 °F - 71.6 °F 94% 30.00 in 10.0 mi ENE 4.6 mph - N/A   Overcast
7:53 AM 73.9 °F - 72.0 °F 93% 30.01 in 10.0 mi East 5.8 mph - 0.00 in   Overcast
8:40 AM 75.2 °F - 73.4 °F 94% 30.01 in 10.0 mi East 8.1 mph - N/A   Overcast
8:53 AM 75.0 °F - 73.0 °F 94% 30.01 in 10.0 mi East 9.2 mph - N/A   Overcast
9:35 AM 75.2 °F - 71.6 °F 89% 30.02 in 10.0 mi East 6.9 mph - N/A   Overcast
9:53 AM 77.0 °F - 73.0 °F 88% 30.02 in 10.0 mi East 8.1 mph - N/A   Mostly Cloudy
10:45 AM 80.6 °F 85.4 °F 73.4 °F 79% 30.04 in 10.0 mi East 8.1 mph - N/A   Overcast
10:53 AM 81.0 °F 85.8 °F 73.0 °F 77% 30.04 in 10.0 mi ESE 8.1 mph - N/A   Overcast
11:16 AM 80.6 °F 85.4 °F 73.4 °F 79% 30.04 in 10.0 mi East 10.4 mph - N/A   Mostly Cloudy
11:53 AM 82.0 °F 87.4 °F 73.0 °F 74% 30.04 in 10.0 mi East 9.2 mph - N/A   Scattered Clouds
12:02 PM 82.4 °F 88.2 °F 73.4 °F 74% 30.04 in 10.0 mi East 5.8 mph - N/A   Mostly Cloudy
12:31 PM 82.4 °F 88.2 °F 73.4 °F 74% 30.03 in 10.0 mi East 5.8 mph - N/A   Scattered Clouds
12:53 PM 84.0 °F 90.2 °F 73.0 °F 69% 30.03 in 10.0 mi Variable 5.8 mph - N/A   Partly Cloudy
1:53 PM 84.9 °F 91.4 °F 73.0 °F 67% 30.01 in 10.0 mi East 6.9 mph - N/A   Mostly Cloudy
2:53 PM 84.9 °F 95.3 °F 77.0 °F 77% 30.00 in 10.0 mi ENE 9.2 mph - 0.00 in   Clear
3:45 PM 84.2 °F 90.9 °F 73.4 °F 70% 29.99 in 10.0 mi East 6.9 mph - N/A Thunderstorm Scattered Clouds
3:53 PM 84.0 °F 91.2 °F 73.9 °F 72% 29.98 in 10.0 mi East 6.9 mph - 0.00 in Rain , Thunderstorm Light Rain
4:03 PM 84.2 °F 90.9 °F 73.4 °F 70% 30.00 in 10.0 mi South 12.7 mph 17.3 mph 0.00 in Thunderstorm Mostly Cloudy
4:12 PM 75.2 °F - 73.4 °F 94% 30.02 in 1.8 mi ESE 15.0 mph 29.9 mph 0.00 in Rain , Thunderstorm Heavy Thunderstorms and Rain
4:16 PM 73.4 °F - 71.6 °F 94% 30.01 in 0.8 mi East 8.1 mph 29.9 mph 0.00 in Rain , Thunderstorm Heavy Thunderstorms and Rain
4:20 PM 73.4 °F - 71.6 °F 94% 30.01 in 1.0 mi Calm Calm - N/A Rain , Thunderstorm Heavy Thunderstorms and Rain
4:24 PM 75.2 °F - 71.6 °F 89% 30.01 in 3.0 mi Variable 3.5 mph - N/A Rain , Thunderstorm Light Thunderstorms and Rain
4:53 PM 80.1 °F 84.5 °F 73.9 °F 81% 30.01 in 10.0 mi Calm Calm - N/A   Scattered Clouds
5:30 PM 80.6 °F 86.2 °F 75.2 °F 84% 30.00 in 10.0 mi East 10.4 mph - N/A Thunderstorm Mostly Cloudy
5:45 PM 78.8 °F - 73.4 °F 83% 30.02 in 5.0 mi SSE 10.4 mph 18.4 mph N/A Rain Light Rain
5:53 PM 77.0 °F - 73.9 °F 90% 30.00 in 2.0 mi Calm Calm - N/A Rain Rain
6:02 PM 77.0 °F - 73.4 °F 89% 30.01 in 10.0 mi SSE 3.5 mph - 0.00 in Rain Light Rain
6:18 PM 77.0 °F - 73.4 °F 89% 30.02 in 10.0 mi ESE 5.8 mph - 0.00 in Thunderstorm Scattered Clouds
6:53 PM 78.1 °F - 72.0 °F 81% 30.03 in 10.0 mi East 5.8 mph - 0.00 in Thunderstorm Clear
7:53 PM 77.0 °F - 73.9 °F 90% 30.05 in 10.0 mi East 3.5 mph - N/A   Scattered Clouds
8:53 PM 77.0 °F - 73.0 °F 88% 30.06 in 10.0 mi East 4.6 mph - N/A   Clear
9:53 PM 75.9 °F - 73.0 °F 91% 30.08 in 10.0 mi East 3.5 mph - N/A   Clear
10:53 PM 75.9 °F - 73.0 °F 91% 30.08 in 10.0 mi East 3.5 mph - N/A   Clear
11:53 PM 75.0 °F - 73.0 °F 94% 30.08 in 10.0 mi East 3.5 mph - N/A   Clear